Date String (YYYY-MM-DD hh:mm:ss) UTC,Instrument flags,absolute air pressure of the measurement (hPa),sample flow rate (lpm),inlet stack bypass flow (lpm),air temperature of the measurement (°C),ambient temperature measured by the external sensor (°C),aerosol sample conditioner tube jacket temperature (°C),OPC LED temperature (°C),internal box temperature (°C),relative humidity of the measurement (%),span deviation,mass concentration of particles derived from Lorenz-Mie calculation of OPC scattering (μg/m³),mass concentration of particles derived from Lorenz-Mie calculation of OPC scattering (μg/m³),mass concentration of particles derived from Lorenz-Mie calculation of OPC scattering (μg/m³)
DateTimeUTC,F1_M11,P_M11,Q1_M11,Q2_M11,T1_M11,T2_M11,T3_M11,T4_M11,T5_M11,U1_M11,ZSPAN_M11,X0_M11,X2_M11,X1_M11
2023-09-15 09:00:00,SystemResetWarning,0835.9,5.00,000.00,028.3,027.0,000.0,036.6,029.9,30.9,0000.0,0002.63,0001.97,0001.63
2023-09-15 09:01:00,SystemResetWarning,0835.9,5.00,000.00,028.3,027.0,000.0,036.6,029.9,30.9,0000.0,0002.59,0001.96,0001.64
2023-09-15 09:02:00,SystemResetWarning,0835.9,5.00,000.00,028.3,027.0,000.0,036.6,029.9,31.0,0000.0,0002.57,0001.96,0001.64
2023-09-15 09:03:00,SystemResetWarning,0835.9,5.00,000.00,028.3,027.0,000.0,036.7,029.9,30.7,0000.0,0002.44,0001.91,0001.62
2023-09-15 09:04:00,SystemResetWarning,0835.9,5.00,000.00,028.3,027.0,000.0,036.7,030.0,30.5,0000.0,0002.50,0001.93,0001.64
2023-09-15 09:05:00,SystemResetWarning,0835.9,5.01,000.00,028.3,027.0,000.0,036.7,030.0,30.2,0000.0,0002.51,0001.93,0001.64
2023-09-15 09:06:00,SystemResetWarning,0835.9,5.00,000.00,028.4,027.0,000.0,036.7,030.0,30.5,0000.0,0002.51,0001.91,0001.64
2023-09-15 09:07:00,SystemResetWarning,0835.9,5.01,000.00,028.4,027.0,000.0,036.7,030.0,31.5,0000.0,0002.55,0001.93,0001.65
2023-09-15 09:08:00,SystemResetWarning,0835.9,5.00,000.00,028.4,027.0,000.0,036.7,030.0,31.7,0000.0,0002.58,0001.94,0001.65
2023-09-15 09:09:00,SystemResetWarning,0835.9,5.00,000.00,028.4,027.1,000.0,036.7,030.0,31.8,0000.0,0002.56,0001.93,0001.64
2023-09-15 09:10:00,SystemResetWarning,0835.8,5.00,000.00,028.4,027.1,000.0,036.7,030.0,31.6,0000.0,0002.57,0001.95,0001.65
2023-09-15 09:11:00,SystemResetWarning,0835.8,4.99,000.00,028.4,027.1,000.0,036.7,030.0,31.2,0000.0,0002.55,0001.94,0001.65
2023-09-15 09:12:00,SystemResetWarning,0835.8,5.00,000.00,028.4,027.1,000.0,036.7,030.0,31.0,0000.0,0003.48,0001.95,0001.64
2023-09-15 09:13:00,SystemResetWarning,0835.9,5.00,000.00,028.4,027.1,000.0,036.7,030.0,31.2,0000.0,0003.79,0001.96,0001.64
2023-09-15 09:14:00,SystemResetWarning,0835.8,4.99,000.00,028.4,027.1,000.0,036.7,030.0,31.2,0000.0,0003.77,0001.95,0001.65
2023-09-15 09:15:00,SystemResetWarning,0835.9,5.01,000.00,028.4,027.1,000.0,036.8,030.1,31.2,0000.0,0003.74,0001.94,0001.64
2023-09-15 09:16:00,SystemResetWarning,0835.8,5.00,000.00,028.4,027.1,000.0,036.8,030.1,31.4,0000.0,0003.75,0001.94,0001.64
2023-09-15 09:17:00,SystemResetWarning,0835.8,5.00,000.00,028.4,027.1,000.0,036.8,030.1,31.5,0000.0,0003.66,0001.90,0001.62
2023-09-15 09:18:00,SystemResetWarning,0835.8,5.00,000.00,028.4,027.1,000.0,036.8,030.1,31.5,0000.0,0003.63,0001.89,0001.61
2023-09-15 09:19:00,SystemResetWarning,0835.9,5.00,000.00,028.4,027.1,000.0,036.8,030.1,31.5,0000.0,0003.60,0001.88,0001.61
2023-09-15 09:20:00,SystemResetWarning,0835.8,4.99,000.00,028.5,027.1,000.0,036.8,030.1,31.7,0000.0,0003.59,0001.87,0001.61
2023-09-15 09:21:00,SystemResetWarning,0835.9,5.00,000.00,028.5,027.1,000.0,036.8,030.1,31.8,0000.0,0003.59,0001.85,0001.60
2023-09-15 09:22:00,SystemResetWarning,0835.9,4.99,000.00,028.5,027.1,000.0,036.8,030.1,31.9,0000.0,0003.59,0001.85,0001.60
2023-09-15 09:23:00,SystemResetWarning,0835.9,5.02,000.00,028.5,027.1,000.0,036.8,030.1,32.1,0000.0,0002.68,0001.84,0001.58
2023-09-15 09:24:00,SystemResetWarning,0835.9,5.00,000.00,028.5,027.1,000.0,036.8,030.1,32.2,0000.0,0002.35,0001.83,0001.58
2023-09-15 09:25:00,SystemResetWarning,0835.9,4.99,000.00,028.5,027.1,000.0,036.8,030.1,32.2,0000.0,0002.40,0001.84,0001.56
2023-09-15 09:26:00,SystemResetWarning,0835.9,4.99,000.00,028.5,027.1,000.0,036.8,030.1,32.3,0000.0,0002.42,0001.85,0001.57
2023-09-15 09:27:00,SystemResetWarning,0835.9,5.00,000.00,028.5,027.1,000.0,036.8,030.1,32.3,0000.0,0002.36,0001.83,0001.56
2023-09-15 09:28:00,SystemResetWarning,0835.9,5.00,000.00,028.5,027.1,000.0,036.8,030.1,32.3,0000.0,0002.41,0001.85,0001.57
2023-09-15 09:29:00,SystemResetWarning,0836.0,5.00,000.00,028.5,027.1,000.0,036.9,030.1,32.3,0000.0,0002.38,0001.84,0001.57
2023-09-15 09:30:00,SystemResetWarning,0835.9,5.01,000.00,028.5,027.1,000.0,036.9,030.1,32.1,0000.0,0002.39,0001.84,0001.56
2023-09-15 09:31:00,SystemResetWarning,0835.9,5.00,000.00,028.5,027.1,000.0,036.9,030.1,32.0,0000.0,0002.38,0001.84,0001.56
2023-09-15 09:32:00,SystemResetWarning,0835.9,5.00,000.00,028.5,027.1,000.0,036.9,030.1,32.2,0000.0,0002.35,0001.83,0001.56
2023-09-15 09:33:00,SystemResetWarning,0835.9,5.00,000.00,028.5,027.1,000.0,036.9,030.1,32.2,0000.0,0002.37,0001.84,0001.57
2023-09-15 09:34:00,SystemResetWarning,0835.9,4.99,000.00,028.5,027.1,000.0,036.9,030.1,32.3,0000.0,0002.39,0001.85,0001.57
2023-09-15 09:35:00,SystemResetWarning,0835.9,5.00,000.00,028.5,027.1,000.0,036.9,030.1,32.4,0000.0,0002.43,0001.86,0001.56
2023-09-15 09:36:00,SystemResetWarning,0835.9,5.00,000.00,028.5,027.1,000.0,036.9,030.1,32.4,0000.0,0002.40,0001.85,0001.56
2023-09-15 09:37:00,SystemResetWarning,0835.9,5.01,000.00,028.6,027.1,000.0,036.9,030.1,32.3,0000.0,0002.37,0001.83,0001.55
2023-09-15 09:38:00,SystemResetWarning,0835.9,5.00,000.00,028.6,027.1,000.0,036.9,030.2,32.4,0000.0,0002.39,0001.82,0001.55
2023-09-15 09:39:00,SystemResetWarning,0836.0,5.00,000.00,028.6,027.1,000.0,036.9,030.2,32.4,0000.0,0002.51,0001.84,0001.55
2023-09-15 09:40:00,SystemResetWarning,0836.0,5.00,000.00,028.6,027.1,000.0,036.9,030.2,32.4,0000.0,0002.57,0001.82,0001.54
2023-09-15 09:41:00,SystemResetWarning,0835.9,5.00,000.00,028.6,027.1,000.0,036.9,030.2,32.4,0000.0,0002.78,0001.79,0001.54
2023-09-15 09:42:00,SystemResetWarning,0835.9,5.00,000.00,028.6,027.2,000.0,036.9,030.2,32.4,0000.0,0002.77,0001.79,0001.54
2023-09-15 09:43:00,SystemResetWarning,0836.0,4.99,000.00,028.6,027.2,000.0,036.9,030.2,32.4,0000.0,0002.72,0001.77,0001.53
2023-09-15 09:44:00,SystemResetWarning,0835.9,5.00,000.00,028.6,027.2,000.0,036.9,030.2,31.9,0000.0,0002.75,0001.78,0001.54
2023-09-15 09:45:00,SystemResetWarning,0835.9,5.01,000.00,028.6,027.2,000.0,036.9,030.2,31.1,0000.0,0002.82,0001.83,0001.57
2023-09-15 09:46:00,SystemResetWarning,0835.9,5.01,000.00,028.6,027.2,000.0,037.0,030.1,30.5,0000.0,0002.83,0001.85,0001.60
2023-09-15 09:47:00,SystemResetWarning,0835.9,5.01,000.00,028.6,027.2,000.0,037.0,030.2,30.6,0000.0,0002.87,0001.88,0001.63
2023-09-15 09:48:00,SystemResetWarning,0835.9,5.00,000.00,028.6,027.2,000.0,037.0,030.2,31.3,0000.0,0002.90,0001.90,0001.63
2023-09-15 09:49:00,SystemResetWarning,0835.9,4.99,000.00,028.6,027.2,000.0,037.0,030.2,31.5,0000.0,0002.86,0001.89,0001.64
2023-09-15 09:50:00,SystemResetWarning,0835.9,5.00,000.00,028.6,027.2,000.0,037.0,030.2,31.6,0000.0,0002.72,0001.87,0001.66
2023-09-15 09:51:00,SystemResetWarning,0835.9,5.00,000.00,028.6,027.2,000.0,037.0,030.2,31.8,0000.0,0002.69,0001.89,0001.68
2023-09-15 09:52:00,SystemResetWarning,0835.9,5.00,000.00,028.6,027.2,000.0,037.0,030.2,31.8,0000.0,0002.36,0001.93,0001.70
2023-09-15 09:53:00,SystemResetWarning,0835.9,5.00,000.00,028.6,027.2,000.0,037.0,030.2,31.8,0000.0,0002.40,0001.97,0001.73
2023-09-15 09:54:00,SystemResetWarning,0835.9,5.00,000.00,028.6,027.2,000.0,037.0,030.2,31.7,0000.0,0002.48,0002.03,0001.77
2023-09-15 09:55:00,SystemResetWarning,0835.9,5.00,000.00,028.6,027.2,000.0,037.0,030.2,31.6,0000.0,0002.49,0002.05,0001.80
2023-09-15 09:56:00,SystemResetWarning,0835.9,5.01,000.00,028.6,027.2,000.0,037.0,030.2,31.5,0000.0,0002.40,0002.02,0001.80
2023-09-15 09:57:00,SystemResetWarning,0835.9,5.01,000.00,028.6,027.2,000.0,037.0,030.2,31.3,0000.0,0002.49,0002.04,0001.80
2023-09-15 09:58:00,SystemResetWarning,0835.9,5.01,000.00,028.6,027.2,000.0,037.0,030.2,30.5,0000.0,0002.50,0002.06,0001.81
2023-09-15 09:59:00,SystemResetWarning,0835.9,5.00,000.00,028.6,027.2,000.0,037.0,030.2,30.5,0000.0,0002.52,0002.09,0001.85
